Orbital Elements at Epoch 2459200.5 (2020-Dec-17.0) TDB
Reference: JPL 18 (heliocentric ecliptic J2000)
Element | Value | Uncertainty (1-sigma) | Units |
e | .09622659324479359 | 3.4019e-08 | |
a | 2.979110165808596 | 1.5509e-08 | au |
q | 2.692440543651903 | 1.0214e-07 | au |
i | 1.547998289523701 | 5.7673e-06 | deg |
node | 2.802679102750242 | 0.0001082 | deg |
peri | 294.7741494773795 | 0.00011338 | deg |
M | 68.36379972112893 | 3.2096e-05 | deg |
tp | 2458843.842004414193 (2019-Dec-26.34200441) | 0.00016841 | TDB |
period | 1878.141339929169 5.14 | 1.4666e-05 4.015e-08 | d yr |
n | .1916788648151351 | 1.4968e-09 | deg/d |
Q | 3.26577978796529 | 1.7001e-08 | au |
|
| | Orbit Determination Parameters
Additional Information
|